« Back
NWS Peachtree City, Ga » Text Product » GA Regional Weather Roundup


Printer-friendly Version
Current Version              Previous Versions:   1  2  3  4  5  6  7  8  9  

Regional Weather Roundup

641
ASUS42 KFFC 300203
RWRGA
WEATHER ROUNDUP FOR GEORGIA
NATIONAL WEATHER SERVICE PEACHTREE CITY GA
1000 PM EDT WED JUL 29 2015

NOTE: "FAIR" INDICATES FEW OR NO CLOUDS BELOW 12,000 FEET WITH NO
SIGNIFICANT WEATHER AND/OR OBSTRUCTIONS TO VISIBILITY.

* = USE WITH CAUTION. THE STATIONS MARKED WITH AN ASTERISK MAY NOT
REPORT WEATHER SUCH AS PRECIPITATION, FOG, OR THUNDER AND ARE NOT
QUALITY CONTROLLED BY NWS.

THE REMARK "TC" DENOTES TEMPERATURE READING IN DEGREES CELSIUS.

GAZ001>058-300300-
NORTH GEORGIA

CITY           SKY/WX    TMP DP  RH WIND       PRES   REMARKS
ATLANTA        MOCLDY    84  74  71 SE7       29.99R HX  91
ATHENS         MOCLDY    80  74  81 CALM      29.99R
CHAMBLEE       CLOUDY    84  74  71 SE5       29.99R HX  91
PEACHTREE CITY CLOUDY    84  75  74 VRB3      29.98R HX  92
ROME           PTCLDY    84  74  71 NW6       29.97R HX  91
WEST ATLANTA   MOCLDY    82  78  88 CALM      29.97R HX  91
GAINESVILLE    MOCLDY    80  73  79 E3        30.04R
CARTERSVILLE   PTCLDY    77  72  84 CALM      29.98R


CITY           SKY/WX    TMP DP  RH WIND       PRES   REMARKS
DALTON*        PTCLDY    81  77  89 NW3       29.99R
MARIETTA       MOCLDY    86  74  66 N3        29.99R HX  94
KENNESAW*      PTCLDY    84  73  70 CALM      30.00S HX  91
BLAIRSVILLE*     N/A     76  65  70 CALM      30.06R
$$

GAZ059>098-102>109-300300-
CENTRAL GEORGIA

CITY           SKY/WX    TMP DP  RH WIND       PRES   REMARKS
AUGUSTA-BUSH   MOCLDY    85  74  69 CALM      29.94R HX  92
AUGUSTA-DANIEL MOCLDY    85  74  69 NW6       29.96R HX  92
COLUMBUS       CLOUDY    83  72  69 SW3       29.96R
MACON          MOCLDY    81  76  84 CALM      29.96R
ROBINS AFB     MOCLDY    82  76  82 N3        29.95R


CITY           SKY/WX    TMP DP  RH WIND       PRES   REMARKS
LAGRANGE*      CLOUDY    81  79  94 S3        29.98R HX  90
SYLVANIA*      PTCLDY    85  78  80 SE7       29.96R HX  96
MILLEDGEVILLE* MOCLDY    79  73  83 CALM      29.97R
$$

GAZ099>101-110>166-300300-
SOUTH GEORGIA

CITY           SKY/WX    TMP DP  RH WIND       PRES   REMARKS
SAVANNAH       PTCLDY    82  75  79 SE5       29.96R
VALDOSTA       MOCLDY    79  75  87 S9        29.99R
ALMA           TSTM      76  76 100 SE10      29.99R VSB 1
ST SIMONS      PTCLDY    81  75  82 SE5       29.96R
FT STEWART     CLEAR     80  73  80 SE2       29.94R
ALBANY         LGT RAIN  77  73  87 SW7       29.98F
HUNTER AFB     CLEAR     81  79  93 SE2       29.94R HX  91
MOODY AFB      MOCLDY    81  75  83 SW13      29.97R
BRUNSWICK      CLEAR     82  77  83 E5        29.97R HX  91


CITY           SKY/WX    TMP DP  RH WIND       PRES   REMARKS
BAINBRIDGE*    MOCLDY    79  77  94 CALM      29.99R THUNDER
MOULTRIE*      LGT RAIN  79  77  94 W5        29.99F
VIDALIA*       RAIN      81  75  83 SE8       29.96R
WAYCROSS*      MOCLDY    87  77  73 S8        29.96R HX  98
DOUGLAS*       MOCLDY    86  77  74 S5        29.97R THUNDER HX  97
$$



USA.gov is the U.S. government's official web portal to all federal, state and local government web resources and services.